FENGYUN 1C DEB

Satellite information

Favourite Embed

Satellite Type and Status

DEBRISIN ORBIT

Key statistics

Satellite FENGYUN 1C DEB at a glance.

Uptime

9613

Days in orbit

Revolutions

≈ 14.6

Per day

Orbit

SSO

Sun Synchronous Orbit

Inclination

99.5

Latest

Satellite identification and parameters

Extended collection of information and parameters for FENGYUN 1C DEB.

Object identification

Identified? True

Debris? True

Object name: FENGYUN 1C DEB

International designator: 1999-025CTG

Object number (NORAD): 32162

Object ID (CCSDS): 32162

Country: PEOPLES REPUBLIC OF CHINA (PRC)

Current information (Y/N): Y

RCS size: SMALL

Orbital parameters

Period: 98.618 minutes

Inclination: 99.4755 deg

SMA: 7070.715 km

Apoapsis: 728.491 km

Periapsis: 656.669 km

RAAN: 275.4002 deg

Eccentricy: 0.00507887

Argument of periapsis: 117.4412 deg

Mean anomaly: 243.1962 deg

Mean motion: 14.60184557 rev/day

Mean motion (dot): 0.00010684 rev/day2

B* drag term: 0.0021869584 1/REarth

Two-line elements (TLE)

Creation date: Sept. 2, 2025, 3:25 a.m.

Reference frame: TEME

Reference center: EARTH

Epoch: Sept. 1, 2025, 7:37 p.m. UTC

TLE line 0: 0 FENGYUN 1C DEB

TLE line 1: 1 32162U 99025CTG 25244.81780842 .00010684 00000-0 21870-2 0 9993

TLE line 2: 2 32162 99.4755 275.4002 0050789 117.4412 243.1962 14.60184557934301

Live tracking on map

Real-time ground track for satellite FENGYUN 1C DEB.

In-orbit conjunctions

A list of the most updated potential collisions computed for object FENGYUN 1C DEB.

Target Orbit TCA Probability of collision Miss distance Type
COSMOS 2251 DEB LEO 2025-08-09 13:47:55 0.0001191407 121.0 (m) DEBRIS
CZ-4 DEB SSO 2024-09-26 02:12:06 0.0001540865 914.0 (m) DEBRIS

Associated space launch

Chinese polar orbiting meteorological satellite

FENGYUN 1C DEB was lifted into orbit during the mission ‘Long March 4B | Feng Yun 1C’, on board a Long March 4B space rocket.

The launch took place on May 10, 1999, 1:33 a.m. from Launch Complex 7.

For more information about the launch, click the button.

Launch to space Long March 4B | Feng Yun 1C
Long March 4B | Feng Yun 1C

Agency: N/A

Status: Launch Successful

Launch date: May 10, 1999, 1:33 a.m. UTC

Rocket: Long March 4B

Launch pad: Launch Complex 7

Location: Taiyuan Satellite Launch Center, People's Republic of China

...

Latest news about this satellite

There are no fresh news available about this satellite. Check back as we update our databases every day.


Newsletter sign-up

Weekly statistics, charts and insights to help you stay on top of the space industry.